Location: Basses Si�yes
(44.0835°N, 6.2037°E)
Time: 18:37:54
(UTC+00:00)

STARLINK-80 - Pass Details

Date: 27 February 2020
Orbit: 490 x 494 km, 53.0° (Epoch: 29 March)

Event Time Altitude Azimuth Distance (km) Brightness Sun altitude
Rises 19:17:12 0° 305° (NW) 2,582 8.2 -21.7°
Reaches altitude 10° 19:19:23 10° 308° (NW) 1,696 7.0 -22.1°
Enters shadow 19:22:45 61° 345° (NNW) 567 3.7 -22.7°
